Date,TemperatureHighF,TemperatureAvgF,TemperatureLowF,DewpointHighF,DewpointAvgF,DewpointLowF,HumidityHigh,HumidityAvg,HumidityLow,PressureMaxIn,PressureMinIn,WindSpeedMaxMPH,WindSpeedAvgMPH,GustSpeedMaxMPH,PrecipitationSumIn
2013-1-1,42,39,31,33,30,19,79,69,60,29.91,29.74,4,2,0,0.00
2013-1-2,36,29,24,20,17,15,78,61,49,30.08,29.88,5,2,0,0.00
2013-1-3,37,28,21,21,18,16,85,68,47,30.09,29.98,3,1,0,0.00
2013-1-4,40,35,26,25,24,20,78,64,54,30.01,29.88,5,3,0,0.00
2013-1-5,44,34,26,27,24,20,80,65,48,30.20,29.94,4,2,0,0.00
2013-1-6,49,38,33,38,32,28,95,80,53,30.03,29.88,3,1,0,0.00
2013-1-7,49,36,27,34,28,24,91,75,46,30.30,29.95,4,1,0,0.00
2013-1-8,51,36,24,35,29,22,94,80,53,30.33,30.24,5,1,0,0.00
2013-1-9,54,43,30,43,37,28,96,80,61,30.29,30.06,4,1,0,0.00
2013-1-10,53,43,34,36,30,27,82,60,41,30.42,30.16,5,2,0,0.00
2013-1-11,48,46,33,47,44,28,96,92,82,30.42,29.96,5,1,0,0.00
2013-1-12,49,47,45,48,46,44,97,96,93,30.06,29.94,2,0,0,0.00
2013-1-13,57,48,42,52,47,41,98,94,81,30.05,29.90,4,1,0,0.00
2013-1-14,58,53,44,56,49,35,98,87,56,30.16,29.84,4,1,0,0.00
2013-1-15,42,39,38,39,36,31,95,88,72,30.23,30.10,3,1,0,0.00
2013-1-16,41,38,35,40,37,34,97,97,96,29.98,29.68,4,1,0,0.00
2013-1-17,44,39,36,37,35,33,97,85,66,29.98,29.83,3,1,0,0.00
2013-1-18,36,31,24,34,20,11,92,63,38,30.40,29.88,6,2,0,0.00
2013-1-19,55,39,25,32,26,15,76,60,37,30.33,29.85,8,4,0,0.00
2013-1-20,58,45,33,34,27,15,71,51,31,29.94,29.62,7,4,0,0.00
2013-1-21,35,31,26,27,18,13,92,61,41,30.00,29.72,4,1,0,0.00
2013-1-22,25,20,14,22,7,-1,90,57,40,30.13,29.74,6,4,0,0.00
2013-1-23,23,15,7,6,2,-2,83,58,44,30.17,30.07,5,2,0,0.00
2013-1-24,27,17,6,8,5,1,89,62,34,30.31,30.02,7,2,0,0.00
2013-1-25,26,18,12,17,8,2,89,65,41,30.33,29.96,4,1,0,0.00
2013-1-26,30,19,8,17,11,5,92,73,47,30.28,29.95,5,1,0,0.00
2013-1-27,37,22,9,18,13,5,89,69,43,30.43,30.28,4,1,0,0.00
2013-1-28,36,29,18,34,26,14,96,88,79,30.40,29.92,4,1,0,0.00
2013-1-29,53,42,33,47,40,32,97,91,73,30.04,29.90,3,1,0,0.00
2013-1-30,68,56,45,60,53,44,97,90,75,29.96,29.29,11,4,0,0.00
2013-1-31,61,60,60,59,58,14,93,93,93,29.73,29.28,11,10,0,0.00
2013-2-1,34,29,23,23,14,8,76,53,39,30.15,29.73,7,3,0,0.00
2013-2-2,33,25,17,22,11,8,88,56,35,30.22,29.95,6,2,0,0.00
2013-2-3,34,27,19,27,23,17,95,85,69,29.95,29.69,2,0,0,0.00
2013-2-4,32,26,20,25,16,12,92,65,47,29.91,29.73,6,2,0,0.00
2013-2-5,35,32,27,32,29,22,95,92,81,29.86,29.78,3,0,0,0.00
2013-2-6,41,34,25,32,27,20,95,78,53,30.25,29.80,5,2,0,0.00
2013-2-7,39,30,21,33,22,15,90,72,58,30.38,30.17,5,1,0,0.00
2013-2-8,42,38,31,41,37,29,96,93,84,30.17,29.50,8,5,0,0.00
2013-2-9,35,29,22,30,23,12,97,80,56,30.23,29.63,8,4,0,0.00
2013-2-10,40,26,12,26,15,8,87,66,30,30.38,30.22,5,1,0,0.00
2013-2-11,55,46,31,54,44,26,97,94,83,30.24,29.54,7,3,0,0.00
2013-2-12,50,44,38,47,32,28,93,66,45,29.81,29.61,6,4,0,0.00
2013-2-13,42,32,25,30,26,22,94,79,57,29.83,29.72,2,1,0,0.00
2013-2-14,50,38,32,38,34,30,97,87,56,29.92,29.60,3,1,0,0.00
2013-2-15,60,42,30,41,35,29,97,77,38,29.93,29.80,5,1,0,0.00
2013-2-16,43,38,35,35,32,23,92,81,62,29.84,29.70,4,2,0,0.00
2013-2-17,33,28,21,11,8,3,46,42,38,29.93,29.60,8,6,0,0.00
2013-2-18,39,28,19,15,9,4,56,46,33,30.17,29.93,7,3,0,0.00
2013-2-19,52,40,27,47,33,15,95,78,52,30.11,29.58,8,3,0,0.00
2013-2-20,39,32,26,33,19,13,79,59,43,29.91,29.65,8,4,0,0.00
2013-2-21,38,30,23,19,16,13,69,57,44,30.16,29.90,9,4,0,0.00
2013-2-22,38,31,22,35,25,16,92,77,67,30.29,30.14,6,1,0,0.00
2013-2-23,46,42,36,45,41,34,97,96,93,30.15,29.67,5,2,0,0.00
2013-2-24,51,40,32,42,34,24,97,80,54,29.89,29.64,8,3,0,0.00
2013-2-25,47,37,27,31,28,23,87,70,51,30.12,29.89,3,1,0,0.00
2013-2-26,45,37,26,41,32,24,100,84,62,30.16,29.70,11,4,0,0.00
2013-2-27,56,47,41,53,44,39,97,89,65,29.71,29.39,9,3,0,0.00
2013-2-28,50,44,37,41,36,30,91,76,59,29.53,29.45,4,1,0,0.00
2013-3-1,47,39,31,34,31,28,94,73,54,29.68,29.52,5,2,0,0.00
2013-3-2,44,37,32,29,26,24,74,64,50,29.68,29.59,4,3,0,0.00
2013-3-3,41,34,28,24,22,19,73,62,48,29.67,29.58,6,3,0,0.00
2013-3-4,45,35,28,24,22,18,71,58,43,29.82,29.67,7,4,0,0.00
2013-3-5,51,37,29,31,26,22,89,66,42,29.92,29.81,6,2,0,0.00
2013-3-6,41,39,31,39,36,28,93,87,81,29.85,29.64,10,6,0,0.00
2013-3-7,37,36,34,35,34,33,95,93,90,29.96,29.94,5,3,0,0.00
2013-3-8,41,36,34,35,34,33,95,91,80,30.04,29.94,4,3,0,0.00
2013-3-9,47,37,32,28,26,23,84,64,38,30.20,30.15,0,0,0,0.00
2013-3-10,47,37,26,38,32,24,96,84,68,30.28,30.20,6,2,0,0.00
2013-3-11,57,44,32,49,41,31,97,89,63,30.21,29.98,6,2,0,0.00
2013-3-12,56,53,45,55,50,42,97,91,83,29.99,29.58,9,4,0,0.00
2013-3-13,53,44,36,43,33,26,90,67,37,29.81,29.70,6,2,0,0.00
2013-3-14,44,36,29,27,19,13,66,50,34,29.86,29.77,7,4,0,0.00
2013-3-15,51,39,28,28,21,13,61,48,38,29.91,29.63,8,3,0,0.00
2013-3-16,41,37,33,33,30,26,95,77,57,29.80,29.65,4,1,0,0.00
2013-3-17,41,34,28,33,26,21,95,73,49,30.19,29.80,6,2,0,0.00
2013-3-18,41,35,28,39,28,18,96,76,60,30.27,29.82,10,4,0,0.00
2013-3-19,52,42,39,43,38,23,97,86,52,29.84,29.60,6,2,0,0.00
2013-3-20,50,40,30,26,22,19,69,49,32,29.81,29.69,8,3,0,0.00
2013-3-21,41,34,29,32,25,16,90,69,48,29.71,29.54,4,2,0,0.00
2013-3-22,45,34,26,23,20,15,73,57,40,29.80,29.66,6,3,0,0.00
2013-3-23,50,38,28,25,22,20,76,54,34,29.83,29.72,7,3,0,0.00
2013-3-24,49,38,27,30,24,20,78,60,37,29.85,29.58,6,2,0,0.00
2013-3-25,39,36,33,35,33,30,96,88,73,29.59,29.33,6,3,0,0.00
2013-3-26,52,42,32,39,34,31,97,77,48,29.77,29.49,4,1,0,0.00
2013-3-27,55,43,32,34,30,26,86,64,33,29.89,29.77,5,2,0,0.00
2013-3-28,51,42,32,33,31,28,86,66,47,30.01,29.87,5,2,0,0.00
2013-3-29,57,44,31,33,30,28,88,60,34,30.06,29.95,5,2,0,0.00
2013-3-30,62,46,31,35,29,24,92,56,25,30.08,29.97,4,1,0,0.00
2013-3-31,56,46,33,48,36,-100,96,74,41,30.04,29.59,9,3,0,0.00
2013-4-1,66,52,41,49,42,18,97,71,42,29.80,29.52,7,3,0,0.00
2013-4-2,49,39,28,20,17,15,70,43,27,29.99,29.80,7,3,0,0.00
2013-4-3,51,40,29,20,17,13,58,40,26,30.19,29.99,6,3,0,0.00
2013-4-4,54,40,26,31,23,13,73,52,33,30.29,30.01,8,2,0,0.00
2013-4-5,67,49,38,44,33,24,96,61,21,30.01,29.61,5,2,0,0.00
2013-4-6,53,43,34,30,25,19,78,49,30,30.22,29.87,6,3,0,0.00
2013-4-7,61,48,33,46,38,28,89,69,46,30.21,29.92,8,3,0,0.00
2013-4-8,77,61,47,52,48,43,89,64,38,29.98,29.87,7,2,0,0.00
2013-4-9,88,72,57,55,52,45,82,53,23,29.89,29.81,6,2,0,0.00
2013-4-10,82,65,54,58,53,49,94,66,41,29.83,29.68,9,3,0,0.00
2013-4-11,62,56,47,61,53,45,97,91,76,29.89,29.67,9,3,0,0.00
2013-4-12,47,45,44,46,44,43,100,96,91,29.87,29.57,8,4,0,0.00
2013-4-13,63,50,41,48,43,38,97,81,41,29.88,29.60,6,2,0,0.00
2013-4-14,65,53,41,47,39,30,97,64,29,30.09,29.87,7,2,0,0.00
2013-4-15,60,51,45,44,38,34,85,63,49,30.26,30.08,8,3,0,0.00
2013-4-16,72,58,48,57,51,44,92,78,57,30.25,30.03,8,4,0,0.00
2013-4-17,74,61,49,56,50,42,94,71,41,30.17,30.00,6,2,0,0.00
2013-4-18,62,54,44,57,49,41,96,84,66,30.22,29.98,8,3,0,0.00
2013-4-19,76,66,57,66,62,56,96,87,68,29.99,29.57,10,6,0,0.00
2013-4-20,65,54,47,63,40,28,95,64,34,30.18,29.58,5,3,0,0.00
2013-4-21,56,46,35,35,29,23,80,52,34,30.50,30.18,8,3,0,0.00
2013-4-22,49,43,33,41,36,30,94,77,63,30.52,30.35,9,4,0,0.00
2013-4-23,50,46,43,44,41,38,93,84,78,30.35,30.00,6,3,0,0.00
2013-4-24,77,55,37,55,47,35,96,77,46,30.00,29.74,7,2,0,0.00
2013-4-25,70,56,46,52,39,29,90,57,22,30.16,29.78,6,3,0,0.00
2013-4-26,70,53,37,41,36,30,93,59,23,30.28,30.16,4,1,0,0.00
2013-4-27,70,55,38,40,36,32,89,55,27,30.32,30.20,6,2,0,0.00
2013-4-28,70,55,39,47,37,-100,94,57,25,30.22,30.11,6,2,0,0.00
2013-4-29,56,54,51,53,51,47,95,89,73,30.13,30.05,5,2,0,0.00
2013-4-30,67,57,46,53,46,37,94,71,40,30.22,30.07,10,4,0,0.00
2013-5-1,66,53,41,53,44,38,94,73,43,30.36,30.20,8,2,0,0.00
2013-5-2,70,55,40,49,43,39,97,69,39,30.35,30.23,5,2,0,0.00
2013-5-3,63,53,45,47,44,41,92,73,45,30.34,30.24,7,3,0,0.00
2013-5-4,65,53,43,49,44,41,96,75,46,30.26,30.15,7,2,0,0.00
2013-5-5,60,50,44,47,43,39,92,75,57,30.18,30.12,6,3,0,0.00
2013-5-6,63,54,48,53,48,45,94,84,65,30.15,30.05,6,2,0,0.00
2013-5-7,67,57,51,59,54,48,97,89,74,30.05,29.96,7,2,0,0.00
2013-5-8,78,63,57,66,58,53,97,85,49,29.96,29.83,7,3,0,0.00
2013-5-9,76,63,56,61,56,54,97,81,51,29.89,29.79,3,1,0,0.00
2013-5-10,85,66,53,64,56,-100,97,74,37,29.90,29.78,5,1,0,0.00
2013-5-11,80,67,62,69,63,57,96,90,61,29.81,29.59,5,2,0,0.00
2013-5-12,70,61,49,64,47,-100,96,65,29,29.85,29.57,5,2,0,0.00
2013-5-13,60,49,38,37,34,27,89,58,36,30.00,29.85,4,1,0,0.00
2013-5-14,65,50,35,37,33,28,93,56,27,30.04,29.93,3,1,0,0.00
2013-5-15,76,61,45,60,51,34,88,71,52,29.98,29.60,6,2,0,0.00
2013-5-16,81,61,56,63,38,-100,96,73,38,29.75,29.60,3,0,0,0.00
2013-5-17,79,64,50,60,45,-100,93,62,31,30.08,29.72,4,1,0,0.00
2013-5-18,69,58,51,57,53,47,95,84,65,30.20,30.08,3,1,0,0.00
2013-5-19,60,58,55,59,57,54,97,96,95,30.19,30.05,6,2,0,0.00
2013-5-20,80,69,60,71,66,59,98,91,73,30.06,29.87,3,0,0,0.00
2013-5-21,90,75,62,72,67,61,97,80,50,29.88,29.75,4,1,0,0.00
2013-5-22,90,74,67,75,69,65,96,85,58,29.82,29.73,4,1,0,0.00
2013-5-23,83,73,67,72,68,64,94,84,64,29.80,29.66,7,3,0,0.00
2013-5-24,68,58,45,66,56,43,97,94,84,29.87,29.60,4,1,0,0.00
2013-5-25,60,51,44,48,43,37,100,75,48,29.92,29.82,5,2,0,0.00
2013-5-26,73,58,46,45,40,37,78,54,31,30.10,29.89,4,2,0,0.00
2013-5-27,79,60,40,47,42,37,96,59,24,30.15,30.03,3,1,0,0.00
2013-5-28,68,59,49,62,55,46,96,87,59,30.12,30.01,4,0,0,0.00
2013-5-29,94,75,58,72,64,57,97,74,38,30.01,29.92,5,1,0,0.00
2013-5-30,96,82,70,71,67,63,88,64,34,30.04,29.96,2,1,0,0.00
2013-5-31,98,81,67,72,67,57,95,66,27,30.03,29.90,4,1,0,0.00
2013-6-1,94,80,68,71,68,65,92,70,42,29.94,29.82,5,2,0,0.00
2013-6-2,91,77,69,75,68,-100,94,78,53,29.83,29.70,7,3,0,0.00
2013-6-3,81,72,67,73,69,66,96,91,71,29.76,29.68,3,1,0,0.00
2013-6-4,71,62,54,66,54,50,96,77,51,29.99,29.76,3,1,0,0.00
2013-6-5,77,63,49,59,53,45,93,72,45,30.09,29.99,4,1,0,0.00
2013-6-6,72,64,55,63,59,54,97,85,56,30.03,29.88,5,2,0,0.00
2013-6-7,71,66,62,70,65,61,97,97,95,29.88,29.45,4,2,0,0.00
2013-6-8,79,69,58,69,64,57,97,87,68,29.95,29.41,2,1,0,0.00
2013-6-9,87,72,59,67,62,58,96,74,46,30.07,29.95,2,0,0,0.00
2013-6-10,71,68,64,70,67,61,97,94,84,30.05,29.71,3,1,0,0.00
2013-6-11,83,75,68,70,68,62,97,80,57,29.71,29.55,4,2,0,0.00
2013-6-12,84,73,64,64,61,59,88,69,44,29.75,29.64,3,1,0,0.00
2013-6-13,79,68,61,71,63,57,96,86,66,29.74,29.28,4,2,0,0.00
2013-6-14,75,62,55,62,57,53,96,86,57,29.79,29.35,6,1,0,0.00
2013-6-15,84,69,55,65,59,54,97,73,38,29.91,29.80,3,0,0,0.00
2013-6-16,86,72,59,69,63,57,96,77,53,29.90,29.70,6,1,0,0.00
2013-6-17,89,76,65,72,67,63,96,77,50,29.83,29.73,3,1,0,0.00
2013-6-18,81,68,63,72,65,61,96,91,68,29.80,29.70,3,0,0,0.00
2013-6-19,79,68,58,64,59,54,97,76,46,30.05,29.74,5,1,0,0.00
2013-6-20,82,66,56,60,56,54,97,74,43,30.17,30.05,4,1,0,0.00
2013-6-22,85,79,66,68,62,58,77,57,46,30.15,30.04,4,2,0,0.00
2013-6-23,89,74,59,75,66,56,96,79,54,30.10,29.97,5,1,0,0.00
2013-6-24,94,78,71,78,72,66,97,84,49,29.98,29.88,2,1,0,0.00
2013-6-25,93,78,66,77,70,64,96,77,49,29.90,29.74,4,1,0,0.00
2013-6-26,93,81,70,75,70,65,93,72,49,29.77,29.67,4,1,0,0.00
2013-6-27,89,78,71,78,73,70,96,86,63,29.72,29.49,5,1,0,0.00
2013-6-28,90,79,72,75,72,70,95,81,54,29.50,29.38,4,2,0,0.00
2013-6-29,88,76,67,76,70,66,97,84,57,29.59,29.40,3,1,0,0.00
2013-6-30,85,78,73,77,74,71,94,87,75,29.80,29.70,3,2,0,0.00
2013-7-1,84,76,73,77,73,71,96,93,74,29.94,29.80,4,2,0,0.00
2013-7-2,86,77,73,77,74,71,96,89,74,30.08,29.93,4,2,0,0.00
2013-7-3,87,78,70,80,74,68,96,89,72,30.15,30.07,5,1,0,0.00
2013-7-4,92,81,73,78,74,72,96,80,57,30.16,30.07,4,2,0,0.00
2013-7-5,95,81,71,78,73,69,96,78,53,30.12,30.01,3,2,0,0.00
2013-7-6,97,83,74,78,74,72,95,77,46,30.06,29.93,2,1,0,0.00
2013-7-7,96,85,74,78,74,70,94,72,50,29.97,29.84,3,1,0,0.00
2013-7-8,90,75,70,73,68,-100,95,84,57,29.96,29.89,4,1,0,0.00
2013-7-9,88,78,68,77,72,67,97,82,61,29.97,29.89,3,1,0,0.00
2013-7-10,89,79,72,79,72,-100,96,83,64,29.93,29.72,4,2,0,0.00
2013-7-11,85,78,74,76,74,71,95,86,64,29.80,29.72,3,1,0,0.00
2013-7-12,76,72,69,74,69,66,96,90,81,29.93,29.80,5,2,0,0.00
2013-7-13,89,78,70,79,74,69,97,88,71,30.18,29.94,4,1,0,0.00
2013-7-14,92,82,74,79,74,72,96,80,53,30.23,30.14,2,0,0,0.00
2013-7-15,96,82,73,79,74,71,96,79,52,30.16,30.02,2,0,0,0.00
2013-7-16,94,89,78,75,72,69,80,58,45,30.07,30.01,2,1,0,0.00
2013-7-17,89,76,72,76,72,69,95,87,65,30.08,29.98,1,0,0,0.00
2013-7-18,99,85,75,80,75,70,90,73,49,29.98,29.85,2,0,0,0.00
2013-7-19,99,87,79,81,77,75,93,74,47,29.88,29.72,6,2,0,0.00
2013-7-20,96,86,79,78,75,72,88,72,50,29.74,29.64,5,2,0,0.00
2013-7-21,88,80,73,77,74,69,95,81,55,29.84,29.80,4,1,0,0.00
2013-7-22,87,78,73,78,75,71,96,91,76,29.84,29.72,5,1,0,0.00
2013-7-23,88,80,73,78,75,72,96,84,67,29.58,29.47,5,1,0,0.00
2013-7-24,86,77,70,73,70,59,95,80,62,29.79,29.53,2,0,0,0.00
2013-7-25,71,67,64,62,60,57,90,79,67,29.92,29.79,4,2,0,0.00
2013-7-26,81,71,64,69,65,61,93,80,54,29.96,29.87,2,1,0,0.00
2013-7-27,85,74,61,70,65,60,97,77,50,29.96,29.86,4,1,0,0.00
2013-7-28,83,78,71,73,71,69,95,79,63,29.88,29.81,4,2,0,0.00
2013-7-29,89,75,64,72,67,59,97,78,48,30.01,29.85,3,0,0,0.00
2013-7-30,86,70,57,64,60,55,96,73,43,30.07,30.00,2,0,0,0.00
2013-7-31,84,71,58,67,62,57,96,75,47,30.06,29.94,2,0,0,0.00
2013-8-1,74,70,68,69,67,64,96,90,83,29.94,29.72,4,0,0,0.00
2013-8-2,87,76,68,70,67,64,97,78,49,29.83,29.70,3,1,0,0.00
2013-8-3,80,71,66,71,67,64,95,87,67,29.83,29.77,3,0,0,0.00
2013-8-4,82,71,60,66,61,56,97,74,46,29.88,29.75,3,0,0,0.00
2013-8-5,83,68,55,61,56,51,92,68,34,29.95,29.88,2,0,0,0.00
2013-8-6,83,69,55,65,59,53,96,74,41,30.02,29.93,3,1,0,0.00
2013-8-7,80,72,67,70,67,64,92,85,71,30.03,29.96,4,1,0,0.00
2013-8-8,87,76,71,80,72,69,97,88,71,29.97,29.89,4,1,0,0.00
2013-8-9,87,79,74,79,75,72,95,89,71,29.93,29.72,5,2,0,0.00
2013-8-10,86,77,70,75,70,65,96,80,55,29.94,29.76,1,0,0,0.00
2013-8-11,84,73,61,68,64,58,94,76,50,30.01,29.93,3,1,0,0.00
2013-8-12,82,72,66,74,69,65,97,90,71,29.93,29.83,2,0,0,0.00
2013-8-13,79,72,68,74,69,-100,97,92,78,29.83,29.61,2,0,0,0.00
2013-8-14,75,68,58,69,58,53,96,73,52,29.94,29.64,3,1,0,0.00
2013-8-15,81,60,51,59,48,-100,96,75,38,30.04,29.94,2,0,0,0.00
2013-8-16,81,65,53,61,53,-100,97,71,40,30.10,30.02,3,0,0,0.00
2013-8-17,82,67,54,65,59,53,97,77,49,30.16,30.10,3,0,0,0.00
2013-8-18,76,67,61,67,60,-100,95,82,56,30.15,30.03,3,0,0,0.00
2013-8-19,78,65,59,67,51,-100,96,81,56,30.04,29.94,2,0,0,0.00
2013-8-20,90,74,63,73,66,-100,97,81,51,30.03,29.96,2,0,0,0.00
2013-8-21,92,77,65,73,68,64,97,77,41,30.08,29.96,2,0,0,0.00
2013-8-22,83,75,70,75,71,68,95,87,71,29.97,29.79,3,0,0,0.00
2013-8-23,80,72,63,69,66,60,96,83,58,29.97,29.78,2,0,0,0.00
2013-8-24,79,69,59,63,60,55,94,76,44,30.24,29.97,5,1,0,0.00
2013-8-25,88,68,53,64,54,-100,97,69,37,30.30,30.16,3,1,0,0.00
2013-8-26,88,73,62,67,63,54,87,72,44,30.16,29.84,4,1,0,0.00
2013-8-27,88,76,69,72,69,67,94,80,56,29.84,29.75,3,1,0,0.00
2013-8-28,81,76,70,75,73,69,96,91,76,29.77,29.73,0,0,0,0.00
2013-8-29,80,72,67,70,68,65,97,89,70,29.93,29.76,5,1,0,0.00
2013-8-30,86,74,68,72,69,66,94,84,63,29.92,29.78,4,1,0,0.00
2013-8-31,91,78,68,76,72,67,96,82,59,29.80,29.70,4,2,0,0.00
2013-9-1,91,76,72,79,71,-100,96,87,59,29.76,29.68,4,1,0,0.00
2013-9-2,81,75,71,75,73,69,97,94,80,29.70,29.62,2,0,0,0.00
2013-9-3,84,74,63,75,68,59,97,84,59,29.79,29.62,1,0,0,0.00
2013-9-4,84,70,57,63,60,56,97,73,43,29.91,29.79,0,0,0,0.00
2013-9-5,80,69,59,66,59,48,93,72,52,30.02,29.85,0,0,0,0.00
2013-9-6,75,63,51,53,50,46,91,64,37,30.11,30.02,4,1,0,0.00
2013-9-7,82,63,45,59,51,44,97,71,34,30.04,29.82,2,0,0,0.00
2013-9-8,84,72,62,69,60,-100,93,69,51,29.96,29.72,3,1,0,0.00
2013-9-9,76,65,52,61,55,48,93,71,52,30.12,29.96,4,1,0,0.00
2013-9-10,91,77,65,75,70,61,91,80,60,30.08,29.96,5,2,0,0.00
2013-9-11,97,82,72,79,73,70,95,77,52,30.02,29.89,5,1,0,0.00
2013-9-12,92,79,71,76,71,67,94,78,53,29.91,29.60,5,2,0,0.00
2013-9-13,80,70,59,69,63,52,96,80,51,29.75,29.54,3,1,0,0.00
2013-9-14,70,59,49,53,50,46,95,72,51,30.03,29.75,3,1,0,0.00
2013-9-15,77,56,42,55,46,-100,96,76,37,30.12,29.99,3,0,0,0.00
2013-9-16,69,61,56,62,58,53,95,89,73,30.10,29.94,2,0,0,0.00
2013-9-17,64,54,45,53,44,41,92,70,46,30.31,30.10,4,2,0,0.00
2013-9-18,50,42,40,49,41,39,97,95,93,30.24,30.10,0,0,0,0.00
2013-9-19,77,60,43,58,52,42,97,78,42,30.11,29.98,4,1,0,0.00
2013-9-20,79,63,46,63,56,45,97,79,49,30.00,29.90,5,1,0,0.00
2013-9-21,81,66,50,69,61,49,97,86,51,29.92,29.58,7,2,0,0.00
2013-9-22,72,63,52,68,54,-100,97,76,52,29.81,29.56,4,1,0,0.00
2013-9-23,67,54,42,49,46,40,96,74,50,29.93,29.81,3,1,0,0.00
2013-9-24,59,47,41,50,44,40,96,89,70,29.96,29.82,1,0,0,0.00
2013-9-25,73,58,43,56,50,42,97,77,43,29.85,29.78,2,0,0,0.00
2013-9-26,72,57,47,62,53,46,97,87,58,29.98,29.83,3,1,0,0.00
2013-9-27,69,60,52,58,54,51,97,81,58,30.14,29.98,3,1,0,0.00
2013-9-28,72,63,52,58,54,50,95,74,53,30.20,30.12,5,2,0,0.00
2013-9-29,70,57,48,59,50,-100,97,80,59,30.12,29.97,5,1,0,0.00
2013-9-30,73,58,46,59,52,45,97,83,52,29.97,29.88,3,1,0,0.00
2013-10-1,67,62,53,60,58,52,95,87,78,29.91,29.84,0,0,0,0.00
2013-10-2,84,69,55,65,61,54,97,77,49,29.91,29.82,3,1,0,0.00
2013-10-3,80,68,56,64,59,55,97,75,51,30.01,29.91,2,1,0,0.00
2013-10-4,87,72,57,69,63,56,97,76,49,29.97,29.87,3,0,0,0.00
2013-10-5,77,68,64,69,65,62,96,90,74,29.98,29.91,4,1,0,0.00
2013-10-6,74,68,65,71,67,64,97,94,86,29.98,29.90,5,1,0,0.00
2013-10-7,80,69,59,72,66,57,97,91,75,29.91,29.70,9,3,0,0.00
2013-10-8,67,57,48,57,49,46,96,78,49,30.19,29.90,4,1,0,0.00
2013-10-9,62,59,52,53,51,46,88,75,64,30.24,30.13,6,3,0,0.00
2013-10-10,62,60,56,61,57,52,96,92,76,30.14,29.91,5,3,0,0.00
2013-10-11,64,62,60,62,61,59,97,95,88,29.94,29.85,5,4,0,0.00
2013-10-12,69,63,60,60,57,52,95,81,68,30.12,29.92,6,4,0,0.00
2013-10-13,64,59,57,58,52,-100,90,78,68,30.25,30.11,6,4,0,0.00
2013-10-14,66,55,47,55,50,45,96,84,64,30.24,30.14,4,1,0,0.00
2013-10-15,69,55,43,58,48,42,98,82,46,30.16,29.99,4,1,0,0.00
2013-10-16,68,60,52,62,58,51,97,92,79,29.99,29.83,3,1,0,0.00
2013-10-17,74,65,61,66,62,60,96,91,71,29.83,29.61,3,1,0,0.00
2013-10-18,67,60,46,64,50,42,95,72,52,29.89,29.60,4,2,0,0.00
2013-10-19,65,52,39,56,48,38,97,86,64,29.89,29.67,3,0,0,0.00
2013-10-20,62,52,41,57,42,-100,96,73,45,29.97,29.67,3,1,0,0.00
2013-10-21,68,51,37,48,42,35,97,75,36,30.05,29.89,5,1,0,0.00
2013-10-22,71,54,45,55,48,42,97,79,49,29.89,29.66,4,1,0,0.00
2013-10-23,52,46,40,51,43,37,95,88,73,29.71,29.49,3,0,0,0.00
2013-10-24,46,40,36,37,33,31,92,78,58,29.93,29.67,1,0,0,0.00
2013-10-25,55,45,35,39,35,31,90,68,48,30.15,29.93,3,1,0,0.00
2013-10-26,57,43,30,38,34,28,95,72,40,30.14,29.81,7,2,0,0.00
2013-10-27,59,48,36,40,35,-100,87,65,44,30.03,29.78,3,1,0,0.00
2013-10-28,63,44,30,42,35,-100,96,75,44,30.19,30.03,3,0,0,0.00
2013-10-29,58,48,40,48,42,37,93,80,63,30.28,30.18,4,1,0,0.00
2013-10-30,57,47,37,56,46,36,97,95,92,30.24,30.09,2,0,0,0.00
2013-10-31,69,60,51,63,57,50,97,91,76,30.12,29.74,5,2,0,0.00
2013-11-1,70,64,58,65,61,57,97,91,81,29.72,29.49,8,3,0,0.00
2013-11-2,68,58,51,59,52,44,98,81,51,29.67,29.52,2,0,0,0.00
2013-11-3,52,45,33,45,35,-100,96,73,52,30.32,29.68,4,1,0,0.00
2013-11-4,46,37,27,31,27,21,84,68,48,30.53,30.33,5,1,0,0.00
2013-11-5,56,44,33,45,38,31,96,82,63,30.52,30.37,4,1,0,0.00
2013-11-6,63,50,33,56,45,32,97,85,60,30.38,29.97,4,1,0,0.00
2013-11-7,64,56,36,61,54,34,96,92,84,29.98,29.67,5,2,0,0.00
2013-11-8,50,42,31,38,33,28,96,72,50,30.14,29.85,4,1,0,0.00
2013-11-9,52,40,27,36,29,-100,95,70,44,30.21,29.92,3,1,0,0.00
2013-11-10,63,50,41,41,35,29,82,59,36,29.97,29.73,6,2,0,0.00
2013-11-11,57,48,36,37,32,28,75,56,38,30.13,29.88,6,2,0,0.00
2013-11-12,50,41,34,40,32,21,92,71,55,30.11,29.84,5,2,0,0.00
2013-11-13,40,32,22,21,17,13,80,58,33,30.27,30.20,5,1,0,0.00
2013-11-14,56,40,26,21,19,15,78,48,20,30.20,30.08,3,1,0,0.00
2013-11-15,59,47,35,37,34,31,87,65,35,30.14,30.07,2,0,0,0.00
2013-11-16,54,45,34,50,41,-100,96,89,84,30.24,30.13,2,0,0,0.00
2013-11-17,68,57,46,63,55,45,97,94,82,30.16,29.71,3,0,0,0.00
2013-11-18,68,59,48,63,46,31,97,66,33,29.70,29.54,7,2,0,0.00
2013-11-19,50,43,29,33,28,24,81,56,43,30.24,29.70,7,3,0,0.00
2013-11-20,45,33,24,27,21,14,91,65,28,30.48,30.24,3,1,0,0.00
2013-11-21,53,42,27,43,36,21,88,77,63,30.48,30.30,5,1,0,0.00
2013-11-22,60,55,52,54,51,49,95,86,75,30.03,29.83,3,1,0,0.00
2013-11-23,52,43,32,51,29,-100,95,62,44,29.93,29.82,6,3,0,0.00
2013-11-24,32,26,19,19,6,4,58,43,32,30.31,29.91,9,4,0,0.00
2013-11-25,37,27,17,18,14,6,79,58,39,30.41,30.25,3,1,0,0.00
2013-11-26,55,39,29,52,32,19,96,77,46,30.26,29.60,10,2,0,0.00
2013-11-27,63,47,33,62,46,26,97,94,75,29.69,29.25,11,5,0,0.00
2013-11-28,38,32,26,28,20,17,81,64,45,30.38,29.67,8,3,0,0.00
2013-11-29,42,32,24,26,23,20,92,71,47,30.61,30.37,3,1,0,0.00
2013-11-30,40,33,24,32,24,-100,87,71,59,30.61,30.26,5,2,0,0.00
2013-12-1,51,40,30,37,33,28,93,78,54,30.25,29.91,2,0,0,0.00
2013-12-2,40,35,30,34,32,28,93,86,78,29.91,29.77,0,0,0,0.00
2013-12-3,54,41,30,43,37,28,97,85,58,29.90,29.76,1,0,0,0.00
2013-12-4,54,44,31,48,40,29,100,88,72,30.01,29.90,3,0,0,0.00
2013-12-5,63,55,48,58,53,47,97,93,83,30.01,29.84,5,1,0,0.00
2013-12-6,62,51,40,61,50,39,100,96,93,30.01,29.78,5,2,0,0.00
2013-12-7,42,36,28,38,31,-100,97,85,70,30.40,29.97,4,2,0,0.00
2013-12-8,35,30,24,34,26,19,97,86,70,30.47,30.22,3,1,0,0.00
2013-12-9,43,38,34,42,38,33,97,97,97,30.22,29.88,5,1,0,0.00
2013-12-10,34,32,25,33,30,24,97,97,95,30.05,29.79,2,1,0,0.00
2013-12-11,33,26,19,27,22,17,96,88,73,30.26,30.07,4,1,0,0.00
2013-12-12,29,21,17,19,15,11,95,77,52,30.27,30.11,5,1,0,0.00
2013-12-13,37,26,15,23,18,11,87,71,51,30.22,30.06,4,1,0,0.00
2013-12-14,50,35,26,48,31,-100,97,89,77,30.32,29.57,9,3,0,0.00
2013-12-15,54,39,30,53,36,24,97,89,73,29.78,29.39,8,3,0,0.00
2013-12-16,33,27,18,26,16,12,86,64,44,30.14,29.77,5,2,0,0.00
2013-12-17,42,30,21,41,27,15,96,87,62,30.12,29.80,3,0,0,0.00
2013-12-18,39,29,22,28,24,20,93,80,58,30.09,29.80,5,2,0,0.00
2013-12-19,48,36,21,34,27,19,93,73,51,30.11,29.95,4,1,0,0.00
2013-12-20,56,47,38,50,38,31,90,70,49,30.01,29.89,5,2,0,0.00
2013-12-21,69,58,51,57,50,-100,91,79,61,29.91,29.80,7,3,0,0.00
2013-12-22,73,64,61,66,61,57,94,88,78,29.88,29.75,10,5,0,0.00
2013-12-23,64,57,43,63,56,38,97,94,89,30.03,29.77,5,2,0,0.00
2013-12-24,42,36,27,38,27,23,87,70,51,30.25,29.99,5,3,0,0.00
2013-12-25,31,26,19,24,14,11,87,63,45,30.42,30.25,4,2,0,0.00
2013-12-26,42,33,26,29,25,19,88,72,59,30.32,30.07,3,1,0,0.00
2013-12-27,46,31,20,27,22,18,95,72,41,30.28,30.16,5,1,0,0.00
2013-12-28,58,37,23,33,26,20,93,70,37,30.21,30.00,6,2,0,0.00
2013-12-29,58,46,40,57,46,39,97,96,95,29.61,29.29,7,3,0,0.00
2013-12-30,47,38,26,42,33,16,97,82,60,30.07,29.61,5,2,0,0.00
2013-12-31,40,29,22,29,19,13,78,65,55,30.19,29.96,5,2,0,0.00
2014-1-1,41,31,21,31,21,14,86,67,48,30.31,30.11,3,1,0,0.00
2014-1-2,39,32,25,36,30,23,94,91,85,30.10,29.50,6,4,0,0.00